Startseite
Über Mich
AHP4
Galerie
Sehschlangen
Tourenbuch
Bookmarks
Elektronik
Bewertung
Geschichten
[Tagesmessung] [Jahreswerte] [Information]

Messwerte vom 12.04.2022

Die letzten Messwerte von 23:58:47 Uhr:
KategorieMesswert
Temperatur [°C]10
Luftdruck [mBar]998
Sonneneinstrahlung0
Wind [km/h]1 aus
Niederschlag [l/m²]0
rel.Luftfeucht.53.7%
CO2 [ppm]569

Diagramme
Messwerte vom 12.04.2022
Tagesaggregation
KategorieMinimumMaximumSchnittSumme
Temperatur [°C]02210.6354
Luftdruck [mBar]9981002999.8854
Sonneneinstrahlung247123.2792
Wind [km/h]27
rF [%]27.28857.99
Niederschlag [l/m²]0
CO2 [ppm]404741592.8
Einordnung alsVegetationstag

Messungen an benachbarten Tagen: Zur Jahresaggregation 2022
Tabelle aller Messwerte
UhrzeitTemperatur [°C]Luftdruck [mBar]SonneWind [km/h]RichtungRegen [l/m²]rF [%]CO2 [ppm]
00:01:46 2 1002 0 0 N 0 82.7 727
00:04:46 2 1002 0 0 N 0 83 726
00:07:45 2 1002 0 0 N 0 83.2 726
00:10:47 2 1002 0 0 O 0 83.4 724
00:13:46 2 1002 0 0 O 0 83.7 723
00:16:47 2 1002 0 0 O 0 83.5 721
00:19:45 1 1002 0 0 O 0 83.5 713
00:22:46 1 1002 0 0 O 0 83.9 714
00:25:45 1 1002 0 0 O 0 84.5 713
00:28:47 1 1002 0 0 O 0 84.7 709
00:31:47 1 1002 0 0 O 0 84.7 724
00:34:45 1 1002 0 0 O 0 85.1 729
00:37:46 2 1002 0 0 O 0 85.1 732
00:40:49 2 1002 0 0 O 0 85 734
00:43:48 2 1002 0 0 O 0 85.3 730
00:46:44 1 1002 0 0 O 0 84.7 727
00:49:48 1 1002 0 0 O 0 85.1 732
00:52:46 1 1002 0 0 O 0 85.4 741
00:55:47 2 1002 0 0 O 0 85.8 730
00:58:45 2 1002 0 0 O 0 86.3 723
01:01:46 2 1002 0 0 O 0 85.7 720
01:04:48 1 1002 0 0 O 0 85.4 724
01:07:48 1 1002 0 0 O 0 85.5 724
01:10:47 1 1001 0 0 O 0 85.6 721
01:13:46 1 1002 0 0 O 0 85.5 718
01:16:46 1 1002 0 0 O 0 85.4 724
01:19:45 1 1002 0 0 O 0 85.4 723
01:22:45 1 1002 0 0 O 0 85.6 720
01:25:46 1 1002 0 0 O 0 85.9 716
01:28:47 1 1002 0 0 O 0 86.4 718
01:31:47 1 1002 0 0 O 0 86.5 713
01:34:45 1 1002 0 0 O 0 86.1 715
01:37:48 1 1002 0 0 O 0 85.7 718
01:40:46 1 1002 0 0 O 0 86 711
01:43:48 1 1002 0 0 O 0 86.3 701
01:46:47 1 1002 0 0 O 0 86.4 699
01:49:48 1 1002 0 0 O 0 87.5 699
01:52:47 2 1002 0 0 O 0 87.7 703
01:55:45 2 1002 0 0 O 0 87 712
01:58:45 2 1002 0 0 O 0 86.4 708
02:01:47 2 1002 0 0 O 0 86.2 704
02:04:45 2 1002 0 0 O 0 86 695
02:07:47 1 1002 0 0 O 0 85.5 701
02:10:48 1 1001 0 0 O 0 85.6 698
02:13:47 1 1001 0 0 O 0 86.3 700
02:16:46 1 1001 0 0 O 0 86.8 699
02:19:48 1 1002 0 0 O 0 86.5 704
02:22:46 2 1001 0 0 O 0 86.5 703
02:25:47 1 1002 0 0 O 0 86.3 703
02:28:46 1 1001 0 0 O 0 85.7 703
02:31:46 1 1001 0 0 O 0 85.7 697
02:34:48 1 1002 0 0 O 0 85.8 694
02:37:51 1 1002 0 0 O 0 86.2 706
02:40:46 1 1001 0 0 N 0 86.6 706
02:43:45 1 1001 0 0 N 0 87 706
02:46:47 1 1001 0 0 N 0 87.1 705
02:49:47 1 1002 0 0 NO 0 86.9 705
02:52:45 1 1001 0 0 S 0 86.6 707
02:55:48 1 1001 0 0 NO 0 86.2 711
02:58:48 1 1002 0 0 NO 0 86.2 714
03:01:46 1 1002 0 0 NO 0 86.5 714
03:04:50 1 1002 0 0 NO 0 86.5 710
03:07:47 1 1002 0 0 NO 0 86.7 705
03:10:47 1 1000 0 0 NO 0 87.2 701
03:13:46 1 1001 0 0 O 0 87.4 706
03:16:47 2 1001 0 0 O 0 87.3 715
03:19:45 2 1001 0 0 O 0 86.9 703
03:22:48 2 1001 0 0 O 0 85 703
03:25:49 2 1001 0 1 NO 0 84.1 695
03:28:46 2 1001 0 0 O 0 83.5 695
03:31:48 2 999 0 0 O 0 82.9 692
03:34:47 2 1000 0 0 O 0 82.7 692
03:37:47 2 1000 0 0 O 0 82.6 688
03:40:48 2 1001 0 1 O 0 82.3 691
03:43:46 3 1001 0 0 O 0 82 688
03:46:44 2 1001 0 0 O 0 81.4 691
03:49:47 2 1001 0 0 O 0 81.1 680
03:52:46 2 1001 0 0 O 0 81.3 679
03:55:44 2 1001 0 0 O 0 81.3 677
03:58:44 2 1001 0 0 O 0 81.4 689
04:01:47 2 1001 0 0 O 0 82.1 691
04:04:48 2 1001 0 0 O 0 82.7 692
04:07:47 2 1001 0 0 N 0 83 688
04:10:47 2 1001 0 0 N 0 83.3 688
04:13:46 2 1001 0 0 N 0 83.1 691
04:16:46 2 1001 0 0 NO 0 83.1 692
04:19:48 2 1000 0 0 NO 0 83.5 686
04:22:48 1 1000 0 0 NO 0 83.4 681
04:25:48 2 1001 0 0 NO 0 84.2 677
04:28:46 2 1001 0 0 NO 0 84.7 674
04:31:46 2 1000 0 0 NO 0 84.4 679
04:34:48 2 1001 0 0 NO 0 84.3 688
04:37:47 2 1000 0 0 NO 0 83.8 688
04:40:46 2 1001 0 0 NO 0 83.3 694
04:43:49 2 1001 0 0 NO 0 82.6 692
04:46:48 2 1001 0 0 NO 0 82.4 682
04:49:51 2 1000 0 0 NO 0 82 670
04:52:47 2 999 0 0 NO 0 82 680
04:55:48 1 1001 0 0 NO 0 82.3 682
04:58:47 1 1001 0 0 NO 0 82.8 692
05:01:50 1 1000 0 0 NO 0 84 685
05:04:48 1 1000 0 1 NO 0 84.6 682
05:07:47 2 1000 0 0 O 0 85.2 682
05:10:47 2 1000 0 0 O 0 84.9 683
05:13:47 2 1000 0 0 O 0 84.6 685
05:16:44 2 1000 0 0 O 0 84.4 674
05:19:46 2 1000 0 0 O 0 84.2 678
05:22:47 2 1001 0 0 O 0 84.1 676
05:25:46 2 1000 0 0 O 0 84 671
05:28:47 1 1001 0 0 O 0 83.8 677
05:31:45 1 1000 0 0 O 0 84.1 674
05:34:45 1 1000 0 0 O 0 84.6 678
05:37:48 1 1000 0 0 O 0 84.8 688
05:40:47 1 1001 0 0 O 0 84.7 690
05:43:47 1 1000 0 0 O 0 84.5 684
05:46:48 1 1000 0 0 O 0 84.6 680
05:49:46 0 1000 0 0 O 0 84.9 677
05:52:47 1 1001 0 0 O 0 86.3 674
05:55:44 1 1000 0 0 O 0 87.2 670
05:58:47 1 1000 0 0 O 0 88 666
06:01:47 1 1000 3 0 O 0 87.2 667
06:04:49 1 1001 5 0 O 0 86.8 664
06:07:47 1 999 8 0 O 0 86.6 677
06:10:47 2 1000 13 0 O 0 85.9 680
06:13:47 2 1000 19 0 O 0 84.9 674
06:16:46 2 1000 29 0 O 0 84.4 664
06:19:47 2 1000 40 0 O 0 83.8 651
06:22:47 2 1000 50 0 O 0 83.7 650
06:25:47 2 1001 60 0 O 0 83.6 647
06:28:46 2 1000 71 0 O 0 83.3 653
06:31:48 2 1000 83 0 O 0 83.2 656
06:34:48 2 1000 96 0 O 0 83.1 665
06:37:47 2 1001 107 0 O 0 83 660
06:40:46 2 1000 116 0 O 0 83.5 665
06:43:47 2 1001 126 0 O 0 83.6 665
06:46:48 2 1001 134 0 O 0 84 663
06:49:48 2 1000 139 1 NO 0 83.3 662
06:52:48 3 1000 144 1 NO 0 82.4 656
06:55:46 3 1001 149 0 0 81.9 653
06:58:46 3 1001 153 0 0 81.5 657
07:01:48 3 1001 156 0 NO 0 81.2 662
07:04:49 3 1001 158 0 O 0 81.5 655
07:07:48 3 1000 163 0 NO 0 81.7 651
07:10:47 3 1001 166 2 S 0 81.8 645
07:13:48 4 1001 168 0 NO 0 81.7 651
07:16:48 4 1001 171 0 O 0 81 659
07:19:48 4 1001 174 3 N 0 79.6 674
07:22:49 4 1001 176 2 O 0 79 686
07:25:47 4 1001 179 4 N 0 78.7 688
07:28:49 4 1001 181 2 N 0 78.2 695
07:31:49 4 1001 184 1 SO 0 78.2 701
07:34:45 4 1001 186 1 O 0 78.3 705
07:37:48 5 1002 187 0 NW 0 78.3 710
07:40:50 5 1001 189 0 NO 0 78.3 706
07:43:46 5 1002 191 2 N 0 78.2 704
07:46:48 5 1001 193 1 SO 0 77.7 704
07:49:51 5 1002 195 2 NW 0 77.2 715
07:52:47 5 1001 196 1 N 0 76.9 721
07:55:49 6 1001 198 1 NW 0 76 726
07:58:49 6 1001 199 4 N 0 75.1 727
08:01:47 6 1001 201 0 S 0 74.8 733
08:04:49 6 1002 202 4 NO 0 74 735
08:07:48 6 1002 204 2 N 0 74.1 738
08:10:49 6 1001 206 1 O 0 74.2 739
08:13:49 6 1002 207 1 NO 0 73 736
08:16:46 6 1002 208 0 O 0 72 735
08:19:49 7 1001 209 3 SO 0 71.5 741
08:22:48 7 1001 210 4 O 0 71.6 740
08:25:48 7 1002 210 1 O 0 71.5 741
08:28:52 7 1001 211 2 SW 0 68.9 741
08:31:49 8 1001 211 1 SO 0 68.5 734
08:34:48 8 1002 211 1 O 0 67.7 729
08:37:51 8 1001 212 2 NO 0 67.6 730
08:40:48 8 1001 213 1 SO 0 67.1 733
08:43:51 8 1001 214 1 SO 0 66.6 732
08:46:48 8 1002 214 1 O 0 66 736
08:49:49 8 1001 214 5 SO 0 65.6 736
08:52:47 8 1001 215 1 O 0 65.8 732
08:55:47 9 1001 215 1 W 0 66.4 733
08:58:48 9 1001 215 0 O 0 66.6 723
09:01:49 9 1001 215 1 S 0 65.5 731
09:04:49 9 1001 214 1 W 0 65.1 728
09:07:48 9 1002 214 2 S 0 64.4 728
09:10:49 9 1002 214 2 O 0 63.7 721
09:13:47 9 1001 214 4 O 0 63.1 724
09:16:48 9 1001 215 3 SO 0 62.1 726
09:19:49 9 1001 216 2 O 0 61.9 724
09:22:50 9 1001 217 6 SO 0 62 724
09:25:50 9 1001 218 4 O 0 62.5 724
09:28:49 9 1002 218 3 S 0 62.7 727
09:31:50 10 1002 219 2 SW 0 62.4 715
09:34:48 10 1001 220 1 N 0 62.9 713
09:37:48 10 1002 219 3 S 0 62 714
09:40:48 10 1001 219 3 S 0 60.8 714
09:43:49 10 1001 220 3 NW 0 60.7 702
09:46:48 10 1001 220 4 SO 0 61.1 699
09:49:49 11 1001 220 3 NO 0 60.5 705
09:52:49 11 1002 220 4 SO 0 60.3 721
09:55:47 11 1001 220 3 0 59.5 720
09:58:49 11 1002 220 5 NO 0 60.5 717
10:01:49 11 1001 220 4 SO 0 58 705
10:04:47 11 1001 220 5 S 0 57.8 703
10:07:48 11 1001 219 3 SO 0 58.2 705
10:10:50 11 1001 219 1 NW 0 58.1 711
10:13:48 11 1001 219 1 NO 0 57.8 718
10:16:46 11 1001 218 4 N 0 57.3 715
10:19:48 11 1001 217 3 NO 0 58.1 703
10:22:45 11 1001 217 5 N 0 58.9 697
10:25:47 12 1002 217 0 0 58.4 697
10:28:49 12 1001 217 6 S 0 58.3 700
10:31:47 12 1001 218 2 SO 0 56.9 706
10:34:47 12 1001 217 4 W 0 56.7 704
10:37:48 12 1001 217 7 SO 0 56.2 707
10:40:49 12 1002 217 2 SO 0 56.8 702
10:43:48 12 1001 216 7 S 0 56.2 704
10:46:49 12 1001 218 4 S 0 57 697
10:49:50 12 1002 217 7 SO 0 56.7 705
10:52:47 12 1002 218 5 SO 0 55.5 707
10:55:46 12 1001 218 5 N 0 55.3 701
10:58:47 12 1002 218 8 O 0 55.7 700
11:01:47 12 1001 218 2 S 0 55.4 689
11:04:51 12 1001 218 4 SO 0 56.2 689
11:07:48 12 1002 218 5 NO 0 56.6 687
11:10:47 12 1001 218 6 O 0 56.5 692
11:13:49 12 1001 217 8 SO 0 54.9 681
11:16:46 12 1000 218 5 S 0 54.6 674
11:19:48 13 1002 217 5 NO 0 55 674
11:22:48 13 1001 216 7 S 0 54.1 695
11:25:47 13 1001 216 2 N 0 54.1 694
11:28:45 13 1001 215 5 O 0 53.6 685
11:31:45 13 1002 215 1 0 51.7 682
11:34:47 13 1001 215 6 O 0 51.1 688
11:37:47 14 1001 215 4 NO 0 51.9 685
11:40:49 14 1002 214 5 SO 0 53.3 694
11:43:48 14 1001 214 5 W 0 52.2 697
11:46:48 14 1002 214 6 NW 0 51.7 700
11:49:46 14 1001 215 6 O 0 50.2 696
11:52:50 14 1001 217 15 SW 0 49.6 686
11:55:50 14 1001 219 13 S 0 49.3 689
11:58:48 15 1001 220 15 S 0 48.8 682
12:01:49 15 1001 221 10 SO 0 49.8 683
12:04:50 15 1002 222 3 S 0 46.6 656
12:07:48 15 1001 186 6 W 0 46.5 630
12:10:48 15 1001 201 3 NW 0 47.8 600
12:13:48 15 1000 201 4 S 0 46.9 548
12:16:48 16 1000 197 5 SW 0 45.3 504
12:19:47 16 1000 200 7 N 0 45.1 490
12:22:48 16 1001 198 8 O 0 43.5 495
12:25:50 16 1001 194 5 NO 0 42.9 480
12:28:50 16 1001 193 13 SO 0 42.7 475
12:31:50 17 1000 219 3 S 0 42.5 468
12:34:46 17 1000 220 7 S 0 43.2 485
12:37:47 17 1001 221 4 W 0 42.2 501
12:40:48 18 1001 222 4 NO 0 42.4 521
12:43:48 18 1000 222 6 N 0 40.7 518
12:46:48 18 1000 224 3 NO 0 39.6 522
12:49:47 18 1001 225 8 S 0 39.8 518
12:52:48 18 1000 226 7 S 0 38.5 522
12:55:49 18 999 226 16 SO 0 38.3 518
12:58:50 18 1000 225 8 S 0 39.3 526
13:01:48 18 1000 224 4 SO 0 38.8 530
13:04:48 18 1000 223 7 SO 0 39 537
13:07:50 18 1000 223 14 W 0 38.8 536
13:10:51 19 999 222 8 SO 0 38.6 550
13:13:49 19 1000 221 9 NO 0 38 550
13:16:49 19 999 222 9 NO 0 38 556
13:19:48 19 999 223 13 O 0 38.1 557
13:22:46 19 1000 221 7 0 39.2 563
13:25:51 18 1000 222 10 W 0 38.5 565
13:28:50 18 1000 222 6 SO 0 39.7 571
13:31:53 19 1000 223 4 NW 0 39.7 574
13:34:46 19 999 223 7 SW 0 39.1 577
13:37:46 19 999 223 3 N 0 38.3 574
13:40:49 19 1000 225 7 SO 0 40 578
13:43:48 19 999 228 3 NW 0 41.4 591
13:46:47 20 999 230 12 SO 0 40.4 586
13:49:49 20 999 231 10 S 0 38.6 592
13:52:49 20 999 229 14 S 0 35.9 592
13:55:48 19 999 230 3 NO 0 37.6 603
13:58:48 19 999 231 5 W 0 38.4 559
14:01:48 19 999 231 7 O 0 38.2 565
14:04:47 18 999 233 12 O 0 37.7 561
14:07:48 18 999 233 8 NW 0 37.9 547
14:10:48 18 999 235 2 SO 0 38.1 545
14:13:48 19 1000 232 5 O 0 39 551
14:16:48 19 1000 225 8 SO 0 38.2 536
14:19:46 19 1000 233 11 O 0 38 504
14:22:49 19 1000 235 4 SO 0 36.9 501
14:25:47 19 1000 236 2 S 0 37.8 524
14:28:48 19 999 236 13 S 0 38.2 536
14:31:47 20 1000 237 7 NO 0 37.6 534
14:34:46 20 999 241 27 SO 0 37.9 532
14:37:31 18 999 242 10 S 0 40 521
14:40:47 20 999 240 7 O 0 34.7 524
14:43:48 19 999 242 6 SW 0 34.4 539
14:46:47 19 999 242 7 S 0 36.4 544
14:49:47 20 1000 243 7 W 0 36.9 545
14:52:49 20 999 243 5 NO 0 35.2 549
14:55:51 20 999 243 9 SO 0 35.3 553
14:58:49 20 1000 243 9 SW 0 35 553
15:01:48 21 999 244 4 SO 0 35.1 554
15:04:48 21 999 243 3 SO 0 34.7 550
15:07:49 21 999 244 8 N 0 33.7 556
15:10:52 21 999 244 22 S 0 32.5 554
15:13:49 21 999 244 3 NO 0 32.5 565
15:16:47 21 999 245 6 N 0 33.5 560
15:19:49 21 999 245 7 O 0 30.1 571
15:22:48 20 999 245 3 SO 0 30.5 570
15:25:47 20 999 246 4 SO 0 32.1 568
15:28:48 20 999 246 6 NO 0 31.6 563
15:31:47 20 999 245 3 S 0 31.4 551
15:34:48 20 998 245 5 NO 0 33 545
15:37:49 20 999 245 6 NO 0 32.6 530
15:40:47 20 999 245 5 S 0 32.7 530
15:43:46 20 998 245 7 NO 0 33.5 534
15:46:48 21 1000 245 3 S 0 31.7 542
15:49:48 20 998 245 3 O 0 31.9 548
15:52:48 21 999 246 3 NO 0 32.8 548
15:55:47 21 999 246 5 S 0 33.6 548
15:58:47 21 999 246 4 SO 0 31.6 554
16:01:48 21 999 246 8 S 0 31.3 556
16:04:48 21 999 246 9 O 0 30.4 562
16:07:47 21 998 247 9 S 0 29.9 565
16:10:46 22 998 247 5 N 0 30.1 565
16:13:49 22 999 247 5 NO 0 29.4 562
16:16:46 21 998 247 4 S 0 30.4 564
16:19:53 21 998 218 10 SO 0 30.8 563
16:22:47 21 999 219 8 SW 0 30.7 565
16:25:51 21 998 219 4 S 0 29.3 553
16:28:48 21 999 219 2 N 0 29.9 541
16:31:48 21 999 217 6 SO 0 30.9 516
16:34:46 21 998 217 5 NW 0 31.1 501
16:37:48 20 998 217 10 O 0 30.1 480
16:40:47 20 998 218 7 SO 0 30 457
16:43:50 20 998 219 8 NW 0 31.7 440
16:46:46 21 998 218 6 N 0 31.6 433
16:49:48 21 1000 216 6 O 0 30.2 421
16:52:47 21 999 216 7 S 0 30.6 413
16:55:47 21 998 214 4 O 0 30.8 407
16:58:49 21 998 247 9 SO 0 29.5 406
17:01:49 20 998 247 4 SW 0 28.6 407
17:04:46 20 999 247 4 O 0 28.7 404
17:07:47 20 998 247 6 0 30.3 407
17:10:49 21 998 247 14 SW 0 30.6 413
17:13:46 21 998 247 3 W 0 29.5 424
17:16:47 21 998 247 7 SO 0 31.6 431
17:19:48 21 999 247 4 O 0 28.6 433
17:22:50 21 998 246 5 NO 0 28.3 445
17:25:47 21 998 246 4 O 0 27.8 445
17:28:48 21 998 247 6 W 0 27.2 448
17:31:48 21 998 247 6 SO 0 28.7 454
17:34:48 21 998 246 7 NO 0 28.3 465
17:37:51 21 998 247 1 NO 0 29.4 466
17:40:49 21 998 246 6 S 0 29.9 474
17:43:48 21 998 247 5 SO 0 29.9 483
17:46:47 21 998 245 8 O 0 28.9 497
17:49:49 21 998 244 3 SO 0 29.1 504
17:52:47 20 998 246 4 O 0 28.5 518
17:55:50 20 998 246 3 O 0 30.1 510
17:58:49 21 998 246 3 SW 0 31.1 504
18:01:51 21 998 244 4 NW 0 30.5 509
18:04:49 21 998 245 4 SO 0 30.2 509
18:07:48 20 998 245 5 NW 0 29.7 503
18:10:47 20 998 244 4 NW 0 30.3 503
18:13:48 19 998 241 2 S 0 29.1 504
18:16:47 19 998 239 4 0 30.6 510
18:19:49 19 998 242 5 NW 0 31.5 503
18:22:47 18 998 240 3 O 0 32.8 500
18:25:47 18 998 241 3 N 0 33.5 498
18:28:47 18 998 240 2 S 0 33.7 487
18:31:48 18 998 238 1 NO 0 33.6 480
18:34:50 17 998 238 5 SO 0 34.3 478
18:37:49 17 998 235 4 NO 0 34.3 483
18:40:49 17 998 233 3 NO 0 35.8 485
18:43:47 17 998 234 8 SO 0 36.3 472
18:46:50 17 998 233 3 SO 0 36.8 463
18:49:48 17 998 233 0 S 0 37 433
18:52:49 16 998 228 6 NW 0 37.5 439
18:55:47 16 998 229 4 O 0 37.6 439
18:58:49 16 998 228 7 SO 0 38.1 445
19:01:49 16 998 223 3 NO 0 38.4 442
19:04:46 16 998 217 1 O 0 39 445
19:07:49 16 998 215 2 SO 0 39.5 447
19:10:49 16 998 214 5 SO 0 39.9 446
19:13:48 16 998 212 4 S 0 40.2 446
19:16:48 15 998 210 7 O 0 40.6 449
19:19:49 15 998 209 9 SO 0 41.1 454
19:22:47 15 998 204 3 NO 0 41.2 450
19:25:48 15 998 200 2 SO 0 41.3 442
19:28:46 15 999 196 2 O 0 41.5 436
19:31:47 15 998 190 2 O 0 41.7 442
19:34:44 15 998 185 7 O 0 41.8 442
19:37:45 15 998 178 4 NO 0 41.7 445
19:40:46 15 998 170 3 N 0 41.3 442
19:43:47 14 998 161 6 O 0 41.4 433
19:46:45 14 998 153 2 O 0 41.4 431
19:49:47 14 998 144 7 NO 0 42.3 431
19:52:46 14 998 135 4 W 0 42.3 430
19:55:50 14 998 124 1 S 0 42.2 427
19:58:46 14 998 112 2 O 0 42.4 425
20:01:47 14 998 99 1 NO 0 42.4 428
20:04:47 14 998 86 2 N 0 43.1 428
20:07:46 14 998 73 1 W 0 43.2 422
20:10:50 14 998 62 0 NO 0 43.4 421
20:13:46 13 998 53 1 S 0 43.6 424
20:16:46 13 998 43 1 N 0 44 424
20:19:49 13 998 33 1 NO 0 44 425
20:22:46 13 998 24 5 O 0 44.3 419
20:25:47 13 998 17 1 N 0 44.8 415
20:28:48 13 998 11 0 N 0 45 410
20:31:47 13 998 7 0 O 0 45.1 417
20:34:47 13 998 4 2 NO 0 45.2 416
20:37:46 13 998 0 2 O 0 45.6 415
20:40:46 13 999 0 1 N 0 45.6 410
20:43:46 13 998 0 3 N 0 45.6 407
20:46:45 13 998 0 3 NO 0 45.3 410
20:49:47 13 998 0 3 NO 0 45.1 405
20:52:47 13 998 0 2 NW 0 45 414
20:55:46 13 999 0 3 SO 0 45.4 419
20:58:47 13 999 0 2 O 0 45.3 417
21:01:46 13 998 0 2 N 0 45.5 413
21:04:46 13 998 0 2 W 0 45.8 404
21:07:47 13 998 0 3 S 0 45.4 404
21:10:46 13 998 0 6 NO 0 45.3 404
21:13:47 13 998 0 4 S 0 45.3 406
21:16:47 13 998 0 2 SO 0 45.3 406
21:19:48 13 998 0 3 NO 0 45.5 407
21:22:48 13 998 0 2 NW 0 45.6 404
21:25:49 13 998 0 4 O 0 45.3 404
21:28:46 13 998 0 2 S 0 45.3 404
21:31:47 13 998 0 5 SO 0 45.6 407
21:34:47 13 998 0 5 O 0 46 404
21:37:48 12 998 0 3 S 0 46.6 407
21:40:45 12 998 0 0 N 0 46.9 407
21:43:47 12 998 0 5 NO 0 47.1 404
21:46:45 12 998 0 3 NO 0 47.4 407
21:49:48 12 999 0 1 NW 0 48 404
21:52:47 12 998 0 2 N 0 48.6 405
21:55:47 12 998 0 0 N 0 48.7 407
21:58:45 12 998 0 1 O 0 49.2 406
22:01:47 12 999 0 6 SO 0 49.7 404
22:04:45 12 998 0 2 O 0 50 407
22:07:46 11 999 0 5 S 0 50.6 407
22:10:46 11 998 0 1 SO 0 50.7 407
22:13:46 11 998 0 0 SW 0 51.1 406
22:16:48 12 999 0 2 SO 0 50.4 404
22:19:47 12 998 0 5 SO 0 50.1 404
22:22:47 12 998 0 1 SO 0 50.1 404
22:25:44 12 998 0 1 S 0 49.7 410
22:28:48 12 998 0 0 W 0 49.6 413
22:31:46 12 999 0 3 NO 0 49.5 413
22:34:46 12 999 0 5 NW 0 49.6 413
22:37:47 12 999 0 4 SO 0 48.9 422
22:40:47 12 998 0 2 NO 0 48.8 430
22:43:47 12 998 0 0 N 0 48.9 433
22:46:45 12 999 0 2 N 0 48.9 434
22:49:47 12 998 0 0 W 0 48.9 446
22:52:47 12 998 0 1 SO 0 49.1 454
22:55:47 12 999 0 3 SO 0 49.3 460
22:58:47 12 998 0 1 NO 0 49.2 466
23:01:49 12 998 0 2 SW 0 49.2 468
23:04:49 11 998 0 3 SO 0 49.2 468
23:07:47 11 998 0 5 S 0 49.6 468
23:10:48 11 998 0 5 S 0 50.3 475
23:13:45 11 998 0 4 O 0 50.4 483
23:16:47 11 998 0 3 S 0 50.7 486
23:19:46 11 998 0 4 0 50.8 489
23:22:47 11 998 0 8 S 0 51.2 490
23:25:49 11 999 0 6 S 0 51.2 497
23:28:48 11 998 0 4 SO 0 51 498
23:31:47 11 998 0 3 SO 0 50.9 484
23:34:48 11 998 0 5 SO 0 50.9 480
23:37:48 11 998 0 3 S 0 51.1 495
23:40:45 11 998 0 5 S 0 51.3 536
23:43:49 11 998 0 3 SO 0 51.5 550
23:46:46 10 998 0 0 O 0 51.8 562
23:49:46 10 999 0 2 NO 0 52.7 574
23:52:46 10 998 0 1 N 0 53.1 572
23:55:48 10 998 0 3 0 53.4 574
23:58:47 10 998 0 1 0 53.7 569

Letzte Änderung : 04-Jan-2022
Copyright Jens Köhler, Wolfsburg, Obere Dorfstraße 10d